Precipitable_Water
1.26 1.22 1.23 1.17 1.04 0.96 0.89 0.84 0.85 0.82 0.85 0.85 0.82 0.83 0.83 0.89 0.90 0.92 0.93 0.92 0.91 0.87 0.83 0.80 0.79 0.80 0.82 0.83 0.84 0.84 0.89 0.98 0.99 1.00 1.01 1.04 1.02 1.02 1.01 1.03 1.06 1.08
1.23 1.25 1.22 1.11 1.00 0.92 0.84 0.83 0.83 0.86 0.90 0.89 0.89 0.88 0.92 0.92 0.94 0.95 0.92 0.89 0.83 0.79 0.79 0.81 0.81 0.83 0.83 0.82 0.82 0.82 0.82 0.85 0.85 0.89 0.88 0.92 0.92 0.94 0.94 0.97 1.00 1.04
1.26 1.23 1.14 0.98 0.84 0.77 0.80 0.89 0.91 0.94 0.95 0.96 0.96 0.93 0.91 0.92 0.92 0.96 0.94 0.87 0.79 0.77 0.81 0.82 0.83 0.83 0.81 0.80 0.81 0.80 0.80 0.81 0.81 0.83 0.83 0.81 0.84 0.88 0.90 0.95 0.99 0.99
1.24 1.20 1.09 0.94 0.84 0.80 0.85 0.92 0.99 1.00 1.00 0.94 0.92 0.92 0.89 0.91 0.95 0.95 0.91 0.83 0.78 0.77 0.81 0.82 0.83 0.84 0.79 0.77 0.79 0.79 0.80 0.80 0.81 0.81 0.79 0.77 0.77 0.80 0.87 0.94 0.96 0.99
1.21 1.17 1.08 0.96 0.90 0.90 0.92 0.95 0.97 0.99 0.94 0.93 0.93 0.90 0.87 0.90 0.94 0.93 0.88 0.84 0.81 0.78 0.78 0.79 0.80 0.83 0.80 0.77 0.77 0.75 0.74 0.74 0.76 0.74 0.69 0.67 0.71 0.78 0.82 0.89 0.91 0.92
1.22 1.17 1.10 1.01 0.93 0.91 0.91 0.96 1.00 1.01 0.98 0.93 0.88 0.86 0.90 0.94 0.96 0.90 0.86 0.83 0.81 0.77 0.73 0.71 0.72 0.77 0.82 0.77 0.75 0.74 0.72 0.70 0.68 0.66 0.61 0.62 0.65 0.70 0.74 0.84 0.86 0.88
1.19 1.18 1.11 1.04 0.95 0.89 0.91 0.91 0.96 1.06 1.01 0.93 0.87 0.86 0.93 0.96 0.94 0.88 0.85 0.84 0.81 0.76 0.71 0.67 0.67 0.73 0.80 0.77 0.74 0.71 0.70 0.66 0.62 0.61 0.63 0.65 0.65 0.66 0.74 0.81 0.82 0.88
1.19 1.19 1.13 1.04 0.93 0.90 0.93 0.96 0.96 1.00 0.99 0.91 0.83 0.86 0.90 0.92 0.91 0.90 0.88 0.86 0.81 0.76 0.70 0.66 0.67 0.70 0.75 0.75 0.70 0.66 0.61 0.60 0.60 0.62 0.64 0.65 0.66 0.65 0.69 0.79 0.80 0.78
1.20 1.17 1.12 1.05 0.93 0.90 0.91 0.93 0.96 0.99 0.97 0.88 0.85 0.84 0.89 0.90 0.91 0.89 0.89 0.86 0.82 0.75 0.68 0.65 0.67 0.69 0.72 0.72 0.67 0.64 0.62 0.66 0.68 0.69 0.69 0.68 0.67 0.66 0.67 0.73 0.77 0.76
1.22 1.20 1.15 1.06 0.95 0.93 0.94 0.95 0.94 0.96 0.94 0.90 0.88 0.86 0.85 0.88 0.89 0.86 0.85 0.84 0.79 0.72 0.67 0.65 0.66 0.70 0.73 0.74 0.73 0.73 0.73 0.73 0.76 0.77 0.78 0.76 0.74 0.72 0.72 0.74 0.77 0.79
1.24 1.25 1.20 1.10 1.01 0.99 0.99 0.99 0.96 0.96 0.95 0.92 0.89 0.85 0.85 0.83 0.81 0.83 0.81 0.83 0.79 0.71 0.68 0.68 0.68 0.73 0.77 0.80 0.80 0.82 0.80 0.78 0.78 0.79 0.80 0.80 0.79 0.77 0.76 0.77 0.76 0.76
1.29 1.31 1.24 1.20 1.12 1.10 1.06 1.03 0.99 0.97 0.96 0.94 0.88 0.83 0.82 0.77 0.75 0.76 0.80 0.83 0.78 0.75 0.72 0.71 0.73 0.76 0.79 0.80 0.81 0.83 0.82 0.82 0.80 0.79 0.79 0.78 0.79 0.80 0.80 0.80 0.79 0.79
1.21 1.23 1.23 1.18 1.20 1.20 1.17 1.09 1.01 0.98 0.96 0.90 0.85 0.83 0.79 0.75 0.71 0.71 0.74 0.75 0.78 0.77 0.74 0.76 0.77 0.78 0.80 0.81 0.80 0.81 0.80 0.81 0.81 0.82 0.82 0.85 0.86 0.87 0.88 0.88 0.85 0.82
1.21 1.22 1.22 1.21 1.20 1.17 1.17 1.14 1.04 1.01 0.96 0.90 0.83 0.80 0.77 0.74 0.72 0.71 0.76 0.81 0.83 0.79 0.77 0.81 0.82 0.82 0.82 0.81 0.80 0.80 0.81 0.81 0.82 0.84 0.85 0.88 0.92 0.93 0.95 0.95 0.96 0.95
1.22 1.22 1.22 1.22 1.20 1.17 1.16 1.14 1.08 1.02 0.97 0.92 0.85 0.81 0.79 0.76 0.73 0.74 0.77 0.81 0.85 0.84 0.82 0.83 0.83 0.85 0.84 0.84 0.82 0.81 0.85 0.84 0.87 0.88 0.89 0.90 0.92 0.94 0.96 0.97 0.98 0.98
1.23 1.22 1.19 1.19 1.19 1.18 1.19 1.19 1.15 1.08 0.98 0.90 0.87 0.86 0.83 0.81 0.79 0.80 0.82 0.83 0.82 0.88 0.92 0.87 0.88 0.90 0.87 0.83 0.85 0.86 0.85 0.88 0.89 0.92 0.91 0.91 0.91 0.93 0.95 0.98 0.99 1.00
1.24 1.22 1.21 1.18 1.18 1.17 1.21 1.19 1.16 1.14 1.06 0.93 0.86 0.87 0.85 0.81 0.82 0.83 0.83 0.82 0.84 0.85 0.84 0.84 0.86 0.85 0.77 0.78 0.77 0.80 0.88 0.91 0.91 0.94 0.93 0.91 0.91 0.89 0.91 0.96 0.99 1.01
1.22 1.22 1.23 1.20 1.20 1.16 1.18 1.21 1.17 1.14 1.10 1.02 0.88 0.89 0.90 0.89 0.88 0.91 0.90 0.89 0.89 0.90 0.89 0.87 0.87 0.82 0.80 0.80 0.81 0.81 0.83 0.93 0.98 0.97 0.94 0.93 0.92 0.92 0.94 0.97 0.99 1.02
1.18 1.16 1.17 1.17 1.17 1.15 1.18 1.20 1.18 1.12 1.03 0.94 0.89 0.92 0.95 0.95 0.97 0.96 0.95 0.98 0.98 0.96 0.93 0.89 0.88 0.84 0.82 0.82 0.83 0.83 0.85 0.88 0.97 1.00 0.96 0.92 0.92 0.93 0.94 0.97 0.99 1.00
1.14 1.16 1.17 1.19 1.19 1.20 1.19 1.16 1.13 1.10 1.09 1.04 0.99 0.95 0.93 0.96 1.00 1.02 1.04 1.02 1.00 0.99 1.00 0.97 0.91 0.88 0.86 0.86 0.85 0.87 0.90 0.92 0.96 1.01 0.98 0.97 0.96 0.96 0.96 0.96 0.98 0.98
1.12 1.12 1.15 1.17 1.18 1.19 1.19 1.17 1.13 1.12 1.08 1.06 1.02 0.96 0.93 0.93 0.99 1.01 1.02 1.02 1.02 1.03 1.03 1.01 0.96 0.94 0.94 0.94 0.94 0.94 0.94 0.94 0.97 0.98 0.95 0.94 0.94 0.94 0.95 0.96 0.98 1.00
1.03 1.05 1.07 1.10 1.12 1.15 1.15 1.15 1.13 1.10 1.06 1.06 1.02 0.98 0.97 0.97 0.98 1.02 1.00 1.01 1.01 1.00 1.00 0.98 0.98 0.97 0.98 0.98 0.98 0.97 0.97 0.98 0.99 0.95 0.91 0.90 0.90 0.94 0.94 0.96 0.98 0.99
1.01 1.00 1.01 1.02 1.05 1.08 1.10 1.12 1.14 1.14 1.13 1.11 1.06 1.03 1.01 1.00 0.98 1.01 1.03 1.04 1.03 1.02 1.03 1.02 0.99 0.99 0.98 0.97 0.97 0.97 0.97 0.98 0.98 0.95 0.90 0.88 0.87 0.90 0.94 0.96 0.97 0.99
0.96 0.97 0.97 0.99 1.01 1.01 1.03 1.05 1.08 1.12 1.13 1.16 1.13 1.10 1.05 1.02 1.02 1.04 1.08 1.08 1.06 1.04 1.05 1.03 1.02 1.01 0.99 0.98 0.97 0.96 0.96 0.97 0.96 0.94 0.90 0.88 0.86 0.90 0.94 0.96 1.00 1.05
0.91 0.93 0.95 0.96 0.96 0.97 0.98 0.98 1.00 1.03 1.03 1.03 1.04 1.06 1.05 1.05 1.05 1.04 1.05 1.07 1.06 1.04 1.04 1.04 1.02 1.00 1.00 1.00 0.99 0.98 0.97 0.95 0.92 0.89 0.85 0.86 0.88 0.92 0.98 0.99 1.04 1.06
0.87 0.86 0.88 0.89 0.90 0.93 0.96 0.96 0.96 0.95 0.96 0.97 0.97 0.97 0.97 0.99 1.01 1.01 0.99 1.00 1.02 1.02 1.02 1.04 1.01 0.99 1.00 1.00 1.00 1.00 1.00 1.00 0.99 0.93 0.90 0.93 0.97 0.98 0.99 1.03 1.06 1.08
Wind_Speed
15 15 15 15 14 14 14 14 13 13 12 11 11 10 9 9 8 8 8 7 7 7 7 7 7 7 7 7 7 7 8 8 8 8 8 8 9 9 9 10 10 10
16 16 15 15 14 14 14 14 14 13 12 11 11 11 10 9 9 9 8 8 8 7 7 7 7 7 7 7 7 7 7 7 7 7 7 7 8 8 8 8 9 9
16 16 15 15 15 15 15 15 14 13 13 12 12 11 11 10 10 9 9 8 8 7 7 7 7 7 7 7 7 7 7 7 7 6 7 7 7 7 8 7 8 8
17 16 16 15 15 15 15 15 14 14 13 13 12 12 12 11 11 9 9 8 8 8 7 8 8 8 8 8 7 7 7 6 6 6 6 6 6 7 7 7 7 8
17 17 16 15 15 15 15 15 14 14 13 13 13 13 13 12 11 10 9 9 8 8 8 8 8 8 8 8 8 7 7 7 6 6 6 6 6 6 7 7 7 8
18 17 17 16 16 16 16 16 15 14 14 13 13 13 13 13 12 11 10 9 9 8 8 8 9 9 9 9 8 8 7 7 7 7 6 6 6 6 7 7 7 8
18 17 17 17 17 17 17 16 16 15 14 14 14 14 14 13 12 11 10 10 9 9 9 9 9 10 10 9 9 8 8 8 7 7 7 6 6 6 6 7 7 7
18 17 17 17 17 17 17 17 16 15 15 15 15 15 14 14 12 11 11 10 10 9 9 9 9 10 10 9 9 9 8 8 8 7 7 6 6 6 6 6 6 6
18 18 18 17 17 17 17 17 16 16 16 16 15 15 15 14 13 12 11 11 10 10 9 9 10 10 10 10 9 9 8 8 8 8 7 6 6 6 5 6 6 6
18 18 18 18 18 17 17 16 16 16 16 16 16 15 15 14 14 13 12 12 11 10 10 10 10 11 10 10 9 8 8 8 8 8 8 7 7 7 6 6 7 7
19 19 19 18 18 18 17 17 16 17 17 17 17 16 15 14 14 14 13 12 11 10 11 11 11 11 11 10 10 9 8 8 8 8 8 8 8 8 8 8 8 8
19 19 18 18 17 17 17 17 17 17 17 17 17 16 16 15 15 15 14 13 12 11 11 11 11 12 11 11 10 10 9 9 9 9 9 9 9 9 9 9 9 9
19 18 18 17 17 16 16 16 17 18 17 17 17 17 16 15 15 16 15 14 12 12 12 12 12 12 12 12 11 11 10 10 10 10 10 10 10 10 10 10 10 11
18 19 19 18 18 17 16 16 16 17 17 17 17 17 17 16 16 16 16 15 14 13 13 13 13 13 13 12 12 12 12 12 12 12 12 12 12 12 12 12 12 12
18 19 19 19 19 19 18 17 17 17 16 16 17 17 16 16 16 17 16 16 15 14 14 15 15 14 14 13 13 13 13 13 13 13 13 13 13 13 13 13 13 13
18 19 19 19 20 20 20 19 18 18 17 17 17 17 16 16 17 17 17 17 16 15 15 15 15 15 15 14 14 14 14 14 14 14 14 14 14 14 14 14 14 15
18 18 18 19 19 20 20 20 19 19 18 18 18 17 17 17 17 18 17 17 16 16 16 16 16 16 16 16 16 15 15 15 14 14 14 15 15 15 15 15 15 16
17 17 16 17 17 19 20 21 20 20 19 19 18 18 18 18 18 18 18 18 17 17 17 18 17 17 17 17 17 16 16 16 16 15 15 16 16 16 16 16 16 17
15 16 16 15 16 17 18 18 19 20 21 20 19 19 20 20 20 20 20 20 20 20 19 19 18 18 18 18 18 18 18 18 17 17 17 16 16 16 16 17 17 18
13 14 14 15 15 15 15 15 15 18 19 19 19 19 19 19 20 21 21 21 21 21 19 19 18 18 18 19 19 19 19 19 19 18 18 18 17 17 17 18 18 19
10 11 12 12 13 14 14 14 13 15 16 17 17 17 18 19 19 20 20 20 20 19 19 19 19 19 19 19 19 19 20 21 20 20 20 20 19 19 19 19 20 20
9 9 10 11 12 12 13 13 13 13 15 15 16 16 17 18 19 19 19 19 19 19 19 20 20 20 20 20 20 20 21 21 21 21 21 21 21 21 21 21 22 22
7 8 8 9 10 11 12 12 13 13 14 14 15 15 15 16 17 17 17 18 18 19 19 20 20 20 21 21 21 21 22 22 22 22 22 22 22 23 23 23 23 23
6 7 7 8 9 10 11 12 12 13 13 13 14 14 14 15 15 16 16 16 17 17 18 18 19 20 21 21 22 22 22 22 22 23 23 23 24 24 24 24 24 24
6 6 7 7 8 9 10 11 11 12 13 13 13 13 13 14 15 15 15 16 17 17 18 19 19 20 21 21 22 22 22 23 23 24 24 25 25 25 25 25 25 26
7 7 7 7 8 9 9 10 11 12 13 13 13 14 14 14 15 15 16 16 17 18 18 19 20 20 21 22 22 23 23 24 24 24 25 25 25 25 26 26 27 27
Wind_Direction
213 211 210 211 211 209 207 205 205 207 209 211 212 210 210 211 212 214 215 216 217 216 216 217 220 222 223 225 227 229 229 227 226 226 227 228 230 232 235 238 238 239
213 211 211 211 211 208 206 205 205 208 211 213 213 212 214 214 214 217 219 220 222 220 217 217 218 221 223 225 226 226 226 226 225 225 225 225 227 230 232 233 233 233
212 211 210 210 208 205 204 206 207 210 213 215 214 215 216 215 215 218 220 222 224 221 217 219 221 223 225 224 223 222 221 221 221 223 225 226 226 226 227 228 228 228
210 209 209 209 206 204 204 207 210 212 216 217 216 215 214 213 215 218 221 222 223 220 218 220 222 223 222 220 219 219 218 221 222 224 227 228 226 225 226 227 226 225
208 208 208 208 207 205 206 207 210 214 217 218 217 215 212 212 215 219 221 222 224 223 222 223 223 223 221 219 219 220 221 224 224 224 227 227 226 226 227 227 225 224
208 208 209 209 209 208 207 207 211 216 218 217 217 214 212 213 217 220 222 224 226 226 225 227 226 223 221 220 219 221 224 225 224 224 225 225 226 227 227 226 224 223
208 209 210 210 210 209 209 209 213 216 217 215 214 213 213 215 218 221 224 226 228 228 227 227 224 220 218 218 218 219 221 222 223 223 223 223 224 226 226 226 225 224
209 209 209 210 210 210 211 211 213 214 215 214 214 214 215 217 219 222 224 226 227 228 226 223 220 215 214 215 216 217 218 219 220 219 219 220 222 224 225 226 225 224
211 210 210 209 209 210 211 213 214 215 217 217 217 218 218 220 222 223 223 226 227 227 225 221 217 213 212 213 215 216 217 216 216 217 219 222 224 226 226 227 227 224
212 212 211 210 209 211 212 214 216 218 219 220 221 222 222 223 225 223 223 225 226 227 224 220 216 213 211 211 212 215 216 216 218 221 225 229 232 233 234 235 234 231
212 212 211 210 210 212 213 215 218 219 220 221 223 224 225 226 225 223 222 223 225 225 222 218 216 213 211 211 212 215 218 222 225 228 231 235 237 239 240 240 240 238
212 211 210 210 212 213 214 216 219 220 221 223 224 225 226 227 225 222 221 221 222 222 220 217 216 215 215 215 216 220 225 230 234 235 237 239 241 243 245 246 245 243
214 213 212 213 214 215 215 217 219 220 222 223 224 224 225 225 224 221 219 219 220 221 220 219 219 219 220 220 222 228 234 239 242 242 244 245 247 248 248 249 250 248
219 218 218 219 220 219 219 219 220 220 222 223 223 223 224 224 222 220 218 218 221 222 222 222 222 223 224 226 228 234 240 244 246 247 248 249 249 251 251 250 251 251
220 221 222 223 224 223 223 222 221 220 221 222 222 223 225 224 222 220 220 221 224 226 226 225 225 227 230 233 235 238 242 246 248 250 251 252 251 252 252 251 251 253
222 223 225 226 226 226 226 225 223 222 222 222 223 225 225 223 222 222 222 223 227 230 229 228 231 233 235 239 242 243 244 245 248 250 252 252 251 251 251 251 251 253
224 226 227 229 229 228 226 226 226 226 225 224 224 225 225 223 223 223 223 225 230 233 234 234 237 239 240 242 245 246 246 246 248 251 252 252 251 251 252 253 253 254
226 227 227 229 230 228 228 229 230 229 228 227 227 227 227 227 227 227 227 228 231 236 238 240 242 243 244 245 246 247 247 247 248 252 253 254 254 254 255 256 256 256
227 227 227 228 228 226 226 229 231 229 228 230 232 232 231 231 232 232 232 232 234 238 241 241 242 244 245 246 247 247 247 248 250 252 254 255 255 256 257 258 258 258
224 226 227 227 226 224 223 225 227 226 225 227 231 233 233 232 232 233 235 236 238 241 242 241 243 245 246 247 248 248 249 250 251 252 254 255 256 257 258 260 260 260
220 222 224 224 224 223 222 222 225 224 224 226 230 233 235 236 235 235 236 238 239 240 241 241 243 246 246 247 249 250 251 252 252 253 255 256 257 258 259 260 261 262
218 220 222 223 221 219 220 222 225 226 226 229 233 236 239 240 240 239 239 240 241 241 241 242 245 247 247 248 250 252 253 253 252 253 255 256 258 259 260 261 262 262
214 217 220 221 219 218 222 227 230 232 232 233 236 240 242 242 242 241 241 242 243 243 244 245 247 248 248 250 253 254 255 254 254 254 255 257 260 261 261 262 262 262
216 218 220 221 221 222 226 230 233 235 236 237 239 241 242 243 243 243 244 245 246 246 248 248 248 249 251 254 257 257 257 256 255 255 257 260 262 262 262 263 262 262
221 222 223 224 225 227 229 231 233 233 235 238 242 243 244 245 245 245 245 247 249 250 251 251 251 251 254 258 259 260 260 259 258 258 260 262 263 264 264 264 264 264
230 231 229 228 228 229 231 233 234 234 236 240 243 246 246 247 248 249 250 251 253 254 254 254 254 254 257 259 261 262 263 262 261 261 262 263 264 265 266 266 266 266